Radiation Dose at Monitoring Post of Fukushima Daini Nuclear Power Station
Date,Time,MP-1(microSv/h),MP-2(microSv/h),MP-3(microSv/h),MP-4(microSv/h),MP-5(microSv/h),MP-6(microSv/h),MP-7(microSv/h),Wind Direction,Wind Velocity(m/s),Rain
2018/05/17,00:00,0.311,0.197,0.321,0.307,0.303,0.161,0.097,west-southwest,2.4,No
2018/05/17,00:10,0.314,0.197,0.322,0.310,0.301,0.160,0.099,west-southwest,1.9,No
2018/05/17,00:20,0.313,0.197,0.324,0.309,0.300,0.161,0.099,southwest,2.7,No
2018/05/17,00:30,0.312,0.197,0.321,0.306,0.303,0.160,0.098,southwest,3.2,No
2018/05/17,00:40,0.316,0.198,0.324,0.310,0.300,0.161,0.098,south-southwest,3.7,No
2018/05/17,00:50,0.312,0.198,0.320,0.307,0.302,0.160,0.098,south-southwest,4.7,No
2018/05/17,01:00,0.315,0.198,0.325,0.311,0.303,0.161,0.098,south-southwest,3.9,No
2018/05/17,01:10,0.312,0.198,0.321,0.308,0.300,0.159,0.098,south-southwest,3.9,No
2018/05/17,01:20,0.316,0.197,0.322,0.308,0.304,0.161,0.098,south-southwest,5.1,No
2018/05/17,01:30,0.314,0.198,0.321,0.310,0.300,0.161,0.099,southwest,4.4,No
2018/05/17,01:40,0.314,0.198,0.321,0.306,0.302,0.160,0.099,southwest,3.6,No
2018/05/17,01:50,0.314,0.199,0.326,0.309,0.303,0.160,0.099,south-southwest,3.8,No
2018/05/17,02:00,0.313,0.197,0.321,0.309,0.300,0.160,0.099,south-southwest,4.0,No
2018/05/17,02:10,0.316,0.198,0.323,0.308,0.304,0.162,0.098,south-southwest,4.5,No
2018/05/17,02:20,0.312,0.197,0.322,0.310,0.301,0.161,0.099,south-southwest,5.3,No
2018/05/17,02:30,0.314,0.198,0.322,0.309,0.303,0.161,0.098,south,6.7,Yes
2018/05/17,02:40,0.315,0.196,0.323,0.311,0.303,0.160,0.098,south-southwest,5.2,Yes
2018/05/17,02:50,0.312,0.198,0.321,0.308,0.301,0.160,0.098,south-southwest,4.9,No
2018/05/17,03:00,0.316,0.198,0.323,0.309,0.303,0.161,0.099,south,5.2,No
2018/05/17,03:10,0.312,0.198,0.322,0.308,0.300,0.160,0.099,south,5.8,Yes
2018/05/17,03:20,0.315,0.196,0.325,0.307,0.304,0.160,0.098,south,8.5,Yes
2018/05/17,03:30,0.314,0.197,0.322,0.309,0.301,0.160,0.098,south,8.9,No
2018/05/17,03:40,0.315,0.199,0.321,0.307,0.301,0.161,0.099,south-southwest,7.8,No
2018/05/17,03:50,0.314,0.198,0.323,0.310,0.303,0.160,0.098,south-southwest,7.4,No
2018/05/17,04:00,0.312,0.198,0.321,0.308,0.301,0.160,0.098,south-southwest,8.1,No
2018/05/17,04:10,0.317,0.197,0.325,0.310,0.304,0.161,0.098,south-southwest,8.1,No
2018/05/17,04:20,0.312,0.198,0.321,0.310,0.301,0.160,0.098,south-southwest,7.8,No
2018/05/17,04:30,0.316,0.197,0.324,0.307,0.303,0.161,0.099,south-southwest,6.6,No
2018/05/17,04:40,0.313,0.197,0.321,0.311,0.302,0.159,0.098,south-southwest,4.6,No
2018/05/17,04:50,0.313,0.197,0.324,0.307,0.300,0.161,0.100,south-southwest,6.5,No
2018/05/17,05:00,0.315,0.198,0.322,0.309,0.304,0.161,0.098,southwest,6.0,No
2018/05/17,05:10,0.312,0.198,0.322,0.308,0.300,0.160,0.099,southwest,4.6,No
2018/05/17,05:20,0.315,0.197,0.324,0.309,0.302,0.162,0.098,west-southwest,4.7,No
2018/05/17,05:30,0.312,0.198,0.320,0.309,0.301,0.160,0.098,west-southwest,4.6,No
2018/05/17,05:40,0.315,0.196,0.324,0.307,0.300,0.161,0.099,west-southwest,4.6,No
2018/05/17,05:50,0.314,0.198,0.321,0.309,0.302,0.161,0.098,west-southwest,5.5,No
2018/05/17,06:00,0.313,0.196,0.322,0.306,0.301,0.159,0.098,southwest,7.0,No
2018/05/17,06:10,0.314,0.198,0.322,0.308,0.300,0.161,0.099,southwest,4.6,No
2018/05/17,06:20,0.311,0.196,0.319,0.308,0.302,0.158,0.098,southwest,5.2,No
2018/05/17,06:30,0.315,0.197,0.323,0.306,0.300,0.160,0.099,southwest,7.1,No
2018/05/17,06:40,0.314,0.197,0.320,0.308,0.298,0.160,0.097,south-southwest,6.8,No
2018/05/17,06:50,0.312,0.197,0.322,0.307,0.302,0.159,0.097,southwest,5.4,No
2018/05/17,07:00,0.314,0.197,0.322,0.305,0.300,0.161,0.098,west-southwest,3.6,No
2018/05/17,07:10,0.311,0.195,0.320,0.308,0.298,0.159,0.097,south-southwest,2.5,No
2018/05/17,07:20,0.314,0.198,0.322,0.307,0.302,0.159,0.097,-,CALM,No
2018/05/17,07:30,0.313,0.197,0.322,0.306,0.302,0.160,0.099,-,CALM,No
2018/05/17,07:40,0.310,0.196,0.318,0.309,0.298,0.161,0.098,west,0.7,No
2018/05/17,07:50,0.314,0.197,0.323,0.306,0.301,0.159,0.098,-,CALM,No
2018/05/17,08:00,0.313,0.197,0.321,0.306,0.303,0.159,0.099,north,2.5,No
2018/05/17,08:10,0.311,0.197,0.320,0.310,0.300,0.160,0.098,north,6.2,No
2018/05/17,08:20,0.315,0.198,0.324,0.306,0.300,0.160,0.099,north,8.8,No
2018/05/17,08:30,0.314,0.197,0.320,0.309,0.303,0.160,0.099,north,9.3,Yes
2018/05/17,08:40,0.314,0.200,0.324,0.311,0.302,0.162,0.100,north,6.9,Yes
2018/05/17,08:50,0.316,0.198,0.323,0.307,0.303,0.161,0.100,north,6.4,Yes
2018/05/17,09:00,0.314,0.200,0.322,0.311,0.304,0.162,0.100,north,5.1,Yes
2018/05/17,09:10,0.318,0.201,0.326,0.309,0.304,0.163,0.102,north-northeast,5.1,Yes
2018/05/17,09:20,0.316,0.203,0.326,0.313,0.308,0.166,0.104,north,4.2,Yes
2018/05/17,09:30,0.320,0.202,0.327,0.314,0.306,0.168,0.105,north,3.4,Yes
2018/05/17,09:40,0.316,0.202,0.326,0.314,0.308,0.167,0.104,north-northeast,2.5,No
2018/05/17,09:50,0.319,0.200,0.327,0.313,0.305,0.167,0.104,north-northeast,2.1,No
2018/05/17,10:00,0.317,0.200,0.320,0.311,0.306,0.165,0.103,-,CALM,No
2018/05/17,10:10,0.314,0.201,0.322,0.312,0.302,0.165,0.102,south-southwest,2.0,No
2018/05/17,10:20,0.316,0.197,-,0.308,0.302,0.163,0.102,south-southeast,0.6,No
2018/05/17,10:30,0.312,0.199,-,0.310,0.303,0.162,0.101,south-southwest,4.1,No
2018/05/17,10:40,0.314,0.198,-,0.309,0.302,0.162,0.100,south-southwest,5.7,No
2018/05/17,10:50,0.315,0.197,-,0.308,0.300,0.162,0.100,south-southwest,5.9,No
2018/05/17,11:00,0.311,0.199,-,0.310,0.302,0.161,0.099,south-southwest,7.0,No
2018/05/17,11:10,0.314,0.197,-,0.307,0.300,0.161,0.099,south-southwest,7.3,No
2018/05/17,11:20,0.313,0.196,-,0.307,0.298,0.161,0.100,south-southwest,8.6,No
2018/05/17,11:30,0.312,0.199,-,0.311,0.301,0.160,0.099,south-southwest,8.7,No
2018/05/17,11:40,0.314,0.197,-,0.306,0.301,0.161,0.098,south-southwest,8.4,No
2018/05/17,11:50,0.313,0.197,-,0.307,0.299,0.161,0.098,south,8.6,No
2018/05/17,12:00,0.311,0.198,-,0.309,0.302,0.159,0.097,south-southwest,8.9,No
2018/05/17,12:10,0.314,0.198,-,0.307,0.303,0.159,0.098,south-southwest,9.5,No
2018/05/17,12:20,0.314,0.195,-,0.306,0.298,0.161,0.099,south-southwest,7.9,No
2018/05/17,12:30,0.310,0.197,-,0.309,0.298,0.160,0.098,southwest,8.2,No
2018/05/17,12:40,0.313,0.198,-,0.306,0.302,0.159,0.097,southwest,7.0,No
2018/05/17,12:50,0.314,0.196,-,0.306,0.300,0.161,0.098,southwest,5.9,No
2018/05/17,13:00,0.311,0.195,-,0.308,0.298,0.160,0.098,south,3.1,No
2018/05/17,13:10,0.312,0.197,-,0.307,0.300,0.158,0.097,south-southeast,4.4,No
2018/05/17,13:20,0.313,0.197,-,0.306,0.302,0.160,0.098,south-southeast,4.9,No
2018/05/17,13:30,0.312,0.196,-,0.308,0.298,0.160,0.098,south-southeast,5.6,No
2018/05/17,13:40,0.313,0.198,-,0.306,0.301,0.159,0.098,south-southeast,6.9,No
2018/05/17,13:50,0.315,0.196,-,0.307,0.301,0.161,0.098,south,6.7,No
2018/05/17,14:00,0.310,0.196,-,0.309,0.298,0.160,0.098,south,5.7,No
2018/05/17,14:10,0.310,0.198,-,0.306,0.299,0.159,0.097,south,6.1,No
2018/05/17,14:20,0.314,0.197,-,0.305,0.302,0.159,0.098,south-southwest,5.2,No
2018/05/17,14:30,0.313,0.196,-,0.309,0.300,0.160,0.098,southwest,6.9,No
2018/05/17,14:40,0.310,0.194,-,0.306,0.299,0.160,0.097,southwest,4.8,No
2018/05/17,14:50,0.309,0.195,-,0.305,0.295,0.160,0.097,southwest,4.7,No
2018/05/17,15:00,0.313,0.198,-,0.305,0.297,0.160,0.097,southwest,5.5,No
2018/05/17,15:10,0.314,0.198,-,0.309,0.301,0.160,0.098,southwest,3.8,No
2018/05/17,15:20,0.313,0.196,-,0.307,0.302,0.159,0.098,west-southwest,4.2,No
2018/05/17,15:30,0.312,0.197,-,0.305,0.303,0.160,0.097,west-southwest,4.9,No
2018/05/17,15:40,0.311,0.197,-,0.303,0.300,0.160,0.097,west-southwest,5.4,No
2018/05/17,15:50,0.312,0.196,0.317,0.306,0.299,0.160,0.097,southwest,6.0,No
2018/05/17,16:00,0.310,0.196,0.318,0.309,0.298,0.160,0.096,west,4.3,No
2018/05/17,16:10,0.311,0.195,0.318,0.308,0.300,0.160,0.097,west,3.6,No
2018/05/17,16:20,0.311,0.196,0.324,0.306,0.299,0.160,0.098,west-southwest,3.5,No
2018/05/17,16:30,0.312,0.197,0.323,0.304,0.299,0.160,0.097,west,5.4,No
2018/05/17,16:40,0.313,0.198,0.321,0.304,0.299,0.160,0.097,west-southwest,9.2,No
2018/05/17,16:50,0.312,0.197,0.320,0.309,0.299,0.159,0.096,west-southwest,8.9,No
2018/05/17,17:00,0.311,0.197,0.318,0.308,0.300,0.159,0.097,west,6.5,No
2018/05/17,17:10,0.310,0.196,0.322,0.306,0.298,0.159,0.098,west-southwest,4.4,No
2018/05/17,17:20,0.311,0.196,0.322,0.304,0.298,0.158,0.097,west-southwest,2.9,No
2018/05/17,17:30,0.311,0.199,0.320,0.309,0.298,0.158,0.097,west-northwest,3.8,No
2018/05/17,17:40,0.311,0.198,0.318,0.309,0.297,0.161,0.097,west,4.8,No
2018/05/17,17:50,0.316,0.197,0.324,0.308,0.297,0.160,0.097,west-northwest,3.3,No
2018/05/17,18:00,0.313,0.196,0.323,0.304,0.298,0.159,0.097,west-northwest,3.0,No
2018/05/17,18:10,0.313,0.199,0.321,0.310,0.302,0.159,0.096,west-northwest,3.7,No
2018/05/17,18:20,0.311,0.196,0.318,0.308,0.301,0.159,0.096,west-northwest,3.2,No
2018/05/17,18:30,0.316,0.196,0.324,0.305,0.298,0.159,0.097,northwest,3.3,No
2018/05/17,18:40,0.315,0.197,0.323,0.307,0.300,0.159,0.097,northwest,2.2,No
2018/05/17,18:50,0.313,0.198,0.320,0.307,0.302,0.159,0.096,northwest,1.6,No
2018/05/17,19:00,0.311,0.197,0.321,0.307,0.300,0.159,0.097,west,1.3,No
2018/05/17,19:10,0.315,0.197,0.323,0.305,0.296,0.159,0.098,southwest,2.1,No
2018/05/17,19:20,0.315,0.198,0.321,0.308,0.302,0.160,0.097,west-southwest,1.8,No
2018/05/17,19:30,0.311,0.196,0.319,0.308,0.302,0.160,0.098,west-northwest,1.5,No
2018/05/17,19:40,0.315,0.197,0.322,0.305,0.298,0.160,0.097,northwest,2.6,No
2018/05/17,19:50,0.313,0.198,0.321,0.309,0.300,0.160,0.097,north-northwest,2.8,No
2018/05/17,20:00,0.311,0.197,0.321,0.307,0.302,0.159,0.099,north-northwest,1.7,No
2018/05/17,20:10,0.316,0.197,0.324,0.306,0.298,0.159,0.097,north,1.3,No
2018/05/17,20:20,0.314,0.196,0.320,0.310,0.299,0.160,0.097,-,CALM,No
2018/05/17,20:30,0.311,0.198,0.320,0.306,0.302,0.160,0.098,-,CALM,No
2018/05/17,20:40,0.315,0.197,0.323,0.305,0.301,0.160,0.097,north,1.0,No
2018/05/17,20:50,0.313,0.196,0.320,0.309,0.298,0.160,0.097,northeast,2.3,Yes
2018/05/17,21:00,0.311,0.198,0.321,0.308,0.302,0.158,0.098,north-northwest,1.9,Yes
2018/05/17,21:10,0.316,0.197,0.324,0.303,0.300,0.160,0.097,north,2.0,Yes
2018/05/17,21:20,0.314,0.197,0.321,0.309,0.297,0.160,0.098,north,1.9,Yes
2018/05/17,21:30,0.311,0.197,0.321,0.307,0.301,0.160,0.097,north,1.9,Yes
2018/05/17,21:40,0.315,0.197,0.323,0.306,0.302,0.160,0.097,north,2.2,Yes
2018/05/17,21:50,0.312,0.198,0.320,0.310,0.300,0.159,0.099,north,2.7,Yes
2018/05/17,22:00,0.312,0.197,0.324,0.308,0.300,0.160,0.097,north-northwest,2.6,Yes
2018/05/17,22:10,0.315,0.195,0.324,0.307,0.302,0.159,0.097,north,3.1,No
2018/05/17,22:20,0.313,0.198,0.320,0.309,0.299,0.160,0.099,north,3.5,No
2018/05/17,22:30,0.313,0.197,0.323,0.307,0.302,0.161,0.098,north,5.2,No
2018/05/17,22:40,0.315,0.198,0.322,0.308,0.302,0.160,0.097,north,5.9,No
2018/05/17,22:50,0.311,0.197,0.321,0.308,0.298,0.159,0.098,north,6.7,No
2018/05/17,23:00,0.314,0.197,0.323,0.306,0.301,0.161,0.098,north,6.0,No
2018/05/17,23:10,0.315,0.198,0.322,0.309,0.302,0.159,0.098,north,4.2,No
2018/05/17,23:20,0.312,0.196,0.322,0.307,0.299,0.161,0.098,north-northwest,5.3,No
2018/05/17,23:30,0.314,0.197,0.322,0.306,0.303,0.160,0.098,north-northeast,5.3,No
2018/05/17,23:40,0.315,0.198,0.320,0.310,0.299,0.159,0.098,north,10.3,No
2018/05/17,23:50,0.313,0.197,0.323,0.305,0.299,0.160,0.097,north-northeast,10.1,No
